Voltar ao catálogo

FENGYUN 1C DEB

AtivoSSO
NORAD 31365·DEBRIS·🇨🇳 China

Lançado May 10, 1999 de Taiyuan Satellite Launch Center

Loading…

Próximas Passagens (próximas 24 horas)

TLE

AtualizadoSource: Space-Track

Época: Sep 13, 2026, 22:55 UTC

1 31365U 99025BRV 26256.95537179  .00003925  00000-0  11311-2 0  9998
2 31365  98.6694 351.9692 0041208 117.8520 242.6855 14.44784223  5899

Acompanhe FENGYUN 1C DEB em tempo real com AllMySat

Download on the App Store